When you browse on this site, cookies collect data to enhance your experience and personalize the content and advertising you see.
Visit our Privacy Policy to learn more. By continuing to use the site, you agree to this use of cookies and data.
  • Em Portugal
  • Lista de países
  • Para 7 dias
  • Temperatura da água
  • Mapas de satélite
  • Mapa do tempo
  • Widgets de tempo
  • user-avatar
    Iniciar Sessão

    Previsão horária em Marianka

    Hoje, 24 Maio, Sexta-feira

    Tempo Temperatura Precipitação Vento Pressão Humidade
    00:00 +9°C° 0 mm 5 m/s 738 mmHg 94%
    01:00 +9°C° 0 mm 5 m/s 738 mmHg 94%
    02:00 +8°C° 0 mm 5 m/s 738 mmHg 94%
    03:00 +10°C° 0 mm 4 m/s 738 mmHg 94%
    04:00 +10°C° 0 mm 4 m/s 738 mmHg 94%
    05:00 +10°C° 0 mm 4 m/s 738 mmHg 93%
    06:00 +10°C° 0 mm 4 m/s 738 mmHg 91%
    07:00 +11°C° 0 mm 3 m/s 738 mmHg 90%
    08:00 +11°C° 0 mm 3 m/s 738 mmHg 88%
    09:00 +13°C° 0 mm 3 m/s 738 mmHg 83%
    10:00 +16°C° 0 mm 3 m/s 738 mmHg 78%
    11:00 +18°C° 0 mm 4 m/s 738 mmHg 73%
    12:00 +18°C° 0 mm 4 m/s 738 mmHg 71%
    13:00 +19°C° 0 mm 4 m/s 738 mmHg 70%
    14:00 +19°C° 0 mm 4 m/s 738 mmHg 68%
    15:00 +19°C° 0 mm 4 m/s 738 mmHg 68%
    16:00 +19°C° 0 mm 4 m/s 737 mmHg 67%
    17:00 +19°C° 0 mm 4 m/s 737 mmHg 67%
    18:00 +17°C° 0 mm 4 m/s 737 mmHg 71%
    19:00 +16°C° 0 mm 3 m/s 737 mmHg 76%
    20:00 +13°C° 0 mm 3 m/s 737 mmHg 80%
    21:00 +12°C° 0 mm 3 m/s 737 mmHg 82%
    22:00 +10°C° 0 mm 2 m/s 736 mmHg 83%
    23:00 +9°C° 0 mm 2 m/s 736 mmHg 85%

    Amanhã, 25 Maio, Sábado

    Tempo Temperatura Precipitação Vento Pressão Humidade
    00:00 +9°C° 0 mm 2 m/s 736 mmHg 83%
    01:00 +9°C° 0 mm 2 m/s 736 mmHg 81%
    02:00 +9°C° 0 mm 1 m/s 736 mmHg 79%
    03:00 +8°C° 0 mm 2 m/s 736 mmHg 77%
    04:00 +9°C° 0 mm 2 m/s 736 mmHg 75%
    05:00 +9°C° 0 mm 2 m/s 736 mmHg 74%
    06:00 +11°C° 0 mm 3 m/s 736 mmHg 73%
    07:00 +13°C° 0 mm 4 m/s 736 mmHg 73%
    08:00 +15°C° 0 mm 4 m/s 736 mmHg 73%
    09:00 +15°C° 0 mm 4 m/s 736 mmHg 73%
    10:00 +15°C° 0 mm 4 m/s 735 mmHg 73%
    11:00 +17°C° 0 mm 4 m/s 735 mmHg 74%
    12:00 +16°C° 0.2 mm 5 m/s 735 mmHg 72%
    13:00 +17°C° 0.2 mm 6 m/s 735 mmHg 70%
    14:00 +17°C° 0.2 mm 6 m/s 735 mmHg 68%
    15:00 +16°C° 0 mm 6 m/s 735 mmHg 68%
    16:00 +16°C° 0 mm 6 m/s 735 mmHg 69%
    17:00 +15°C° 0 mm 6 m/s 735 mmHg 69%
    18:00 +13°C° 0 mm 5 m/s 735 mmHg 75%
    19:00 +12°C° 0 mm 4 m/s 735 mmHg 81%
    20:00 +10°C° 0 mm 3 m/s 735 mmHg 87%
    21:00 +9°C° 0 mm 3 m/s 736 mmHg 90%
    22:00 +8°C° 0 mm 2 m/s 736 mmHg 93%
    23:00 +7°C° 0 mm 2 m/s 736 mmHg 96%

    Depois de amanhã, 26 Maio, Domingo

    Tempo Temperatura Precipitação Vento Pressão Humidade
    00:00 +7°C° 0 mm 2 m/s 736 mmHg 96%
    01:00 +6°C° 0 mm 2 m/s 736 mmHg 96%
    02:00 +6°C° 0 mm 2 m/s 736 mmHg 96%
    03:00 +6°C° 0 mm 2 m/s 736 mmHg 96%
    04:00 +7°C° 0 mm 3 m/s 736 mmHg 96%
    05:00 +7°C° 0 mm 3 m/s 736 mmHg 96%
    06:00 +9°C° 0 mm 3 m/s 736 mmHg 90%
    07:00 +10°C° 0 mm 4 m/s 736 mmHg 85%
    08:00 +12°C° 0 mm 5 m/s 735 mmHg 80%
    09:00 +13°C° 0 mm 5 m/s 735 mmHg 75%
    10:00 +14°C° 0 mm 5 m/s 735 mmHg 70%
    11:00 +15°C° 0 mm 5 m/s 735 mmHg 65%
    12:00 +16°C° 0.2 mm 5 m/s 735 mmHg 65%
    13:00 +16°C° 0.2 mm 5 m/s 734 mmHg 64%
    14:00 +17°C° 0.2 mm 6 m/s 734 mmHg 64%
    15:00 +15°C° 0.6 mm 5 m/s 734 mmHg 73%
    16:00 +14°C° 0.6 mm 5 m/s 734 mmHg 82%
    17:00 +12°C° 0.6 mm 4 m/s 733 mmHg 92%
    18:00 +11°C° 0.1 mm 4 m/s 733 mmHg 92%
    19:00 +11°C° 0.1 mm 3 m/s 733 mmHg 92%
    20:00 +12°C° 0.1 mm 2 m/s 733 mmHg 92%
    21:00 +10°C° 0 mm 2 m/s 734 mmHg 93%
    22:00 +9°C° 0 mm 2 m/s 734 mmHg 94%
    23:00 +8°C° 0 mm 2 m/s 734 mmHg 96%

    27 Maio, Segunda-feira

    Tempo Temperatura Precipitação Vento Pressão Humidade
    00:00 +9°C° 0.1 mm 3 m/s 734 mmHg 95%
    01:00 +9°C° 0.1 mm 3 m/s 734 mmHg 94%
    02:00 +10°C° 0.1 mm 3 m/s 734 mmHg 94%
    03:00 +10°C° 0.1 mm 3 m/s 734 mmHg 94%
    04:00 +10°C° 0.1 mm 3 m/s 734 mmHg 95%
    05:00 +10°C° 0.1 mm 3 m/s 733 mmHg 95%
    06:00 +11°C° 0 mm 4 m/s 733 mmHg 93%
    07:00 +12°C° 0 mm 5 m/s 733 mmHg 90%
    08:00 +13°C° 0 mm 5 m/s 733 mmHg 87%
    09:00 +14°C° 0 mm 6 m/s 733 mmHg 82%
    10:00 +16°C° 0 mm 7 m/s 733 mmHg 77%
    11:00 +17°C° 0 mm 7 m/s 733 mmHg 72%
    12:00 +18°C° 0.3 mm 7 m/s 733 mmHg 72%
    13:00 +18°C° 0.3 mm 7 m/s 733 mmHg 72%
    14:00 +20°C° 0.3 mm 8 m/s 733 mmHg 73%
    15:00 +18°C° 1 mm 7 m/s 733 mmHg 76%
    16:00 +19°C° 1 mm 6 m/s 733 mmHg 79%
    17:00 +19°C° 1 mm 6 m/s 732 mmHg 83%
    18:00 +17°C° 0.8 mm 5 m/s 732 mmHg 86%
    19:00 +17°C° 0.8 mm 4 m/s 732 mmHg 89%
    20:00 +15°C° 0.8 mm 4 m/s 732 mmHg 92%
    21:00 +14°C° 0.1 mm 4 m/s 733 mmHg 93%
    22:00 +13°C° 0.1 mm 3 m/s 733 mmHg 95%
    23:00 +12°C° 0.1 mm 3 m/s 734 mmHg 96%

    28 Maio, Terça-feira

    Tempo Temperatura Precipitação Vento Pressão Humidade
    00:00 +11°C° 0 mm 3 m/s 734 mmHg 97%
    01:00 +11°C° 0 mm 3 m/s 734 mmHg 97%
    02:00 +10°C° 0 mm 2 m/s 735 mmHg 97%
    03:00 +9°C° 0 mm 2 m/s 735 mmHg 97%
    04:00 +8°C° 0 mm 2 m/s 735 mmHg 97%
    05:00 +8°C° 0 mm 2 m/s 736 mmHg 97%
    06:00 +10°C° 0 mm 1 m/s 736 mmHg 92%
    07:00 +11°C° 0 mm 1 m/s 736 mmHg 87%
    08:00 +12°C° 0 mm 0 m/s 737 mmHg 81%
    09:00 +14°C° 0 mm 1 m/s 737 mmHg 78%
    10:00 +15°C° 0 mm 1 m/s 737 mmHg 74%
    11:00 +16°C° 0 mm 1 m/s 737 mmHg 70%
    12:00 +17°C° 0 mm 2 m/s 737 mmHg 71%
    13:00 +17°C° 0 mm 2 m/s 736 mmHg 73%
    14:00 +17°C° 0 mm 2 m/s 736 mmHg 74%
    15:00 +17°C° 0.3 mm 2 m/s 736 mmHg 79%
    16:00 +16°C° 0.3 mm 3 m/s 735 mmHg 83%
    17:00 +16°C° 0.3 mm 3 m/s 735 mmHg 87%
    18:00 +16°C° 1.5 mm 3 m/s 735 mmHg 90%
    19:00 +14°C° 1.5 mm 3 m/s 734 mmHg 93%
    20:00 +14°C° 1.5 mm 3 m/s 734 mmHg 97%
    21:00 +13°C° 0.8 mm 4 m/s 733 mmHg 97%
    22:00 +13°C° 0.8 mm 4 m/s 733 mmHg 97%
    23:00 +13°C° 0.8 mm 4 m/s 733 mmHg 98%

    29 Maio, Quarta-feira

    Tempo Temperatura Precipitação Vento Pressão Humidade
    00:00 +13°C° 0.6 mm 4 m/s 732 mmHg 98%
    01:00 +13°C° 0.6 mm 4 m/s 732 mmHg 98%
    02:00 +13°C° 0.6 mm 4 m/s 732 mmHg 98%
    03:00 +13°C° 0.7 mm 4 m/s 731 mmHg 98%
    04:00 +13°C° 0.7 mm 5 m/s 731 mmHg 97%
    05:00 +11°C° 0.7 mm 6 m/s 731 mmHg 97%
    06:00 +11°C° 0.2 mm 6 m/s 732 mmHg 96%
    07:00 +10°C° 0.2 mm 7 m/s 732 mmHg 94%
    08:00 +10°C° 0.2 mm 7 m/s 733 mmHg 93%
    09:00 +11°C° 0 mm 6 m/s 733 mmHg 90%
    10:00 +13°C° 0 mm 6 m/s 734 mmHg 87%
    11:00 +14°C° 0 mm 5 m/s 735 mmHg 84%
    12:00 +14°C° 0.1 mm 5 m/s 736 mmHg 82%
    13:00 +15°C° 0.1 mm 5 m/s 736 mmHg 80%
    14:00 +15°C° 0.1 mm 4 m/s 737 mmHg 79%
    15:00 +14°C° 0 mm 5 m/s 737 mmHg 79%
    16:00 +13°C° 0 mm 5 m/s 737 mmHg 79%
    17:00 +12°C° 0 mm 5 m/s 737 mmHg 79%
    18:00 +11°C° 0 mm 4 m/s 738 mmHg 79%
    19:00 +11°C° 0 mm 3 m/s 738 mmHg 78%
    20:00 +10°C° 0 mm 3 m/s 738 mmHg 78%
    21:00 +9°C° 0 mm 3 m/s 738 mmHg 78%
    22:00 +9°C° 0 mm 2 m/s 739 mmHg 77%
    23:00 +9°C° 0 mm 2 m/s 739 mmHg 77%
    Mostrar mais